Location: Pl�tzky
(52.0521°N, 11.8020°E)
Time: 09:06:46
(UTC+00:00)

N. Korean satellite - Pass Details

Date: 02 February 2021
Orbit: 451 x 502 km, 97.2° (Epoch: 07 March)

Event Time Altitude Azimuth Distance (km) Brightness Sun altitude
Rises 04:15:34 0° 20° (NNE) 2,494 10.5 -24.0°
Reaches altitude 10° 04:17:46 10° 31° (NNE) 1,608 9.6 -23.7°
Maximum altitude 04:20:55 33° 97° (E) 792 8.2 -23.2°
Drops below altitude 10° 04:24:01 10° 163° (SSE) 1,585 9.3 -22.7°
Sets 04:26:10 0° 173° (S) 2,451 10.2 -22.4°
